Location: Trout Lake
(45.9980°N, 121.5270°W)
Time: 21:54:31
(UTC-08:00)

Daily predictions for brighter satellites

Satellite Brightness Start Highest point End
(mag) Time Altitude Azimuth Time Altitude Azimuth Time Altitude Azimuth
Cosmos 1603 4.2 16:47:58 10° NNW 16:53:15 37° NE 16:58:27 10° ESE
ATLAS CENTAUR R/B 2.6 16:49:47 10° NW 16:53:43 64° NE 17:01:18 10° ESE
Cosmos 407 Rocket 4.1 16:50:54 10° N 16:55:35 34° ENE 17:00:13 10° SE
Cosmos 1076 Rocket 3.5 16:51:50 10° N 16:56:13 82° E 17:00:33 10° S
APEX 3.4 16:58:09 10° S 17:00:49 30° ESE 17:03:17 10° NE
Helios 1B rocket 2.3 16:56:57 10° SSE 17:00:52 85° ENE 17:04:50 10° NNW
CZ-4B R/B 4.2 17:00:41 10° SE 17:03:58 35° ENE 17:07:20 10° N
SL-16 R/B 3.7 17:00:46 10° NW 17:06:06 43° WSW 17:11:24 10° S
Cosmos 2279 Rocket 4.2 17:01:08 10° N 17:07:22 78° W 17:13:33 10° S
Cosmos 2251 Rocket 3.8 17:03:49 10° NNW 17:08:58 46° ENE 17:14:07 10° SE
Helios 1A 4.2 17:06:08 10° NE 17:09:24 22° E 17:12:38 10° SE
Cosmos 1812 3.0 17:08:14 10° SSE 17:11:41 40° E 17:15:10 10° NNE
CZ-2D R/B 3.3 17:08:48 10° S 17:12:29 75° W 17:16:09 10° NNW
Cosmos 1943 3.1 17:10:11 10° NNW 17:15:50 74° ENE 17:21:29 10° SSE
ATLAS 2AS CENTAUR R/B 3.3 17:10:41 10° NNW 17:17:03 36° NE 17:23:08 10° E
Cosmos 1023 Rocket 4.4 17:15:03 10° NNW 17:20:13 74° ENE 17:25:18 10° SSE
Cosmos 1812 Rocket 3.8 17:18:34 10° SSE 17:22:43 47° E 17:26:56 10° NNE
CZ-2C R/B 2.8 17:20:50 10° S 17:24:23 72° WSW 17:28:00 10° NNW
Nadezhda 4 Rocket 3.9 17:20:18 10° S 17:26:23 72° E 17:32:29 10° NNE
Cosmos 2297 Rocket 4.5 17:23:03 10° WNW 17:26:27 16° NW 17:29:53 10° N
Cosmos 1092 Rocket 4.4 17:22:19 10° SSE 17:27:56 40° E 17:33:35 10° NNE
Cosmos 1190 Rocket 4.5 17:24:10 10° N 17:29:07 38° ENE 17:34:01 10° SE
Cosmos 1666 3.3 17:26:25 10° NNW 17:29:53 53° W 17:33:20 10° S
SL-8 R/B 4.5 17:28:45 10° WNW 17:33:23 52° SSW 17:38:02 10° SE
Lacrosse 4 Rocket 1.6 17:29:25 10° NNW 17:33:44 78° WSW 17:37:57 10° SSE
USA 276 2.2 17:31:59 10° W 17:34:17 39° NNW 17:35:17 25° NE
Cosmos 1818 3.6 17:31:03 10° SSW 17:36:26 70° ESE 17:41:05 14° NE
Cosmos 1844 4.2 17:37:35 10° S 17:42:54 39° ESE 17:46:46 17° NE
Cosmos-2242 3.1 17:39:15 10° SSW 17:43:35 80° W 17:47:55 10° N
Cosmos 1428 Rocket 4.5 17:39:21 10° S 17:45:34 66° E 17:51:47 10° NNE
Cosmos 1833 Rocket 4.2 17:42:51 10° N 17:46:11 16° NE 17:46:16 16° NE
SL-08 R/B 4.2 17:44:51 21° ENE 17:46:43 27° E 17:50:39 10° SSE
Cosmos 1140 Rocket 3.8 17:43:16 10° NNW 17:48:25 68° WSW 17:53:30 10° S
ISS -0.7 17:47:54 10° W 17:50:02 16° SW 17:52:10 10° S
Cosmos 1420 Rocket 4.4 17:45:15 10° S 17:50:10 42° ESE 17:53:32 19° NE
SMAP 3.9 17:49:30 10° S 17:54:03 54° W 17:58:38 10° NNW
Cosmos 2221 3.0 17:50:30 10° SSE 17:54:19 34° E 17:55:40 27° NE
USA 234 3.4 17:49:52 20° ENE 17:54:34 59° SE 18:00:59 10° SW
Meteor 1-31 Rocket 3.5 17:52:31 10° S 17:56:07 52° W 17:59:47 10° NNW
COSMO-SKYMED 1 2.8 17:53:50 18° NNE 17:56:48 46° E 18:00:58 10° S
Cosmos 1933 3.3 17:52:57 10° S 17:56:52 60° E 17:59:54 16° NNE
Cosmos 1624 Rocket 4.3 17:54:08 10° S 17:59:05 45° ESE 18:01:51 24° NE
ADEOS 3.7 17:59:52 10° SE 18:04:52 49° ENE 18:09:53 10° N
CBERS 1 LM4 rocket 4.2 18:00:33 10° SSE 18:05:19 73° ENE 18:10:02 10° N
Cosmos 1627 Rocket 4.4 17:59:28 10° S 18:05:44 75° E 18:12:06 10° NNE
Meteor 1-25 Rocket 4.5 18:00:39 10° NNW 18:06:16 71° W 18:11:48 10° S
COSMOS 2455 3.6 18:01:27 10° SSE 18:06:32 30° ESE 18:07:38 28° E
Radarsat Rocket 3.8 18:01:48 10° SSE 18:07:35 74° ENE 18:13:44 10° NNW
Cosmos 1844 Rocket 2.6 18:04:55 10° SSW 18:10:27 74° ESE 18:14:05 22° NNE
Cosmos 2263 Rocket 3.9 18:06:41 10° WSW 18:11:26 28° NW 18:16:14 10° N
Cosmos 2344 3.5 18:04:13 10° SW 18:11:50 84° NW 18:17:25 19° NE
Cosmos 1271 Rocket 2.9 18:10:02 10° N 18:18:00 - SSE 18:13:19 46° NE
CZ-4B R/B 3.6 18:10:37 10° S 18:15:40 74° WSW 18:20:37 10° NNW
BREEZE-M DEB (TANK) 2.7 18:15:23 10° WNW 18:16:41 30° NW 18:16:41 30° NW
Cosmos 1782 3.1 18:15:33 10° SSW 18:19:25 63° W 18:22:37 15° N
Cosmos 1241 Rocket 4.5 18:14:46 10° SSW 18:21:03 64° ESE 18:24:00 32° NE
Cosmos 676 Rocket 3.9 18:18:10 10° NNW 18:23:27 65° ENE 18:28:39 10° SSE
Meteor 1-26 Rocket 4.1 18:19:42 10° S 18:25:14 75° E 18:30:32 12° NNE
YAOGAN 1 4.1 18:28:10 22° N 18:28:10 22° N 18:29:50 10° N
Cosmos 1766 Rocket 3.3 18:22:03 10° N 18:26:25 79° E 18:30:43 10° SSE
RESURS DK-1 2.2 18:22:47 10° NNW 18:26:52 65° ENE 18:26:52 65° ENE
YAOGAN 3 4.4 18:27:24 10° SSE 18:31:41 68° ENE 18:35:59 10° N
Meteor 1-5 Rocket 4.3 18:26:24 10° NNW 18:32:09 86° WSW 18:38:03 10° S
NOAA 6 4.4 18:29:23 10° S 18:34:29 65° WSW 18:39:35 10° NNW
Lacrosse 5 2.0 18:29:39 10° WSW 18:34:42 71° NW 18:36:04 47° NNE
JB-3 4.1 18:37:16 83° NW 18:37:21 84° WNW 18:41:08 10° SSW
SL-4 R/B 4.2 18:38:30 10° S 18:38:48 11° S 18:38:48 11° S
Timation 2 Rocket 4.0 18:36:31 10° SSW 18:42:28 75° WNW 18:45:41 29° NNE
Helios 1A 4.4 18:41:24 13° N 18:44:44 36° WNW 18:48:31 10° SW
SKYMED 2 4.1 18:42:28 24° N 18:44:54 56° WNW 18:49:09 10° SSW
S3M 4.3 18:41:11 10° N 18:45:55 44° NE 18:45:55 44° NE
Cosmos 1553 Rocket 3.9 18:42:04 10° N 18:48:25 90° E 18:54:37 10° S
Cosmos 1954 Rocket 4.4 18:47:55 10° NNW 18:53:06 62° WSW 18:58:13 10° S
Cosmos 2056 Rocket 3.9 18:47:57 10° SSW 18:53:18 64° WNW 18:55:40 33° N
SME Rocket 4.3 18:49:49 10° SSE 18:55:31 90° NE 19:04:32 10° NNW
ATLAS 2AS CENTAUR R/B 2.9 19:01:38 10° NW 19:08:26 66° WSW 19:11:53 29° SSE
CZ-4B DEB 4.2 19:10:07 41° S 19:12:08 78° WSW 19:17:43 10° NNW
Cosmos 1833 Rocket 4.2 19:25:31 10° NNW 19:27:59 27° NNW 19:27:59 27° NNW
USA 234 3.6 19:37:13 55° NNW 19:37:32 55° NNW 19:43:52 10° W
COSMOS 2455 3.7 19:46:17 10° SW 19:50:49 45° W 19:50:49 45° W
